Flag for Switzerland Weather past 2 weeks in Grenchen, Solothurn, Switzerland

Now
64 °F

Mild.


Feels Like: 64 °F
Forecast: 58 / 88 °F
Wind: 2 mph from East

Location: Grenchen

Current Time: Aug 31, 2015 at 1:19:18 AM

Latest Report: Aug 31, 2015 at 12:00 AM


Visibility: N/A

Pressure: 30.08 "Hg

Humidity: 77%

Dew point: 57 °F

Location of GrenchenLocation

Historic Weather in Grenchen — Graph

°F

Grenchen temperature yesterday

Maximum temperature yesterday: 90 °F (at 4:00 PM)
Minimum temperature yesterday: 62 °F (at 7:00 AM)
Average temperature yesterday: 76 °F

Past Weeks' High & Low Weather Summary

 TemperatureHumidityPressure
High90 °F (Aug 30, 4:00 PM)100% (Aug 26, 6:00 AM)30.27 "Hg (Aug 26, 6:00 AM)
Low47 °F (Aug 26, 6:00 AM)29% (Aug 30, 6:00 PM)29.73 "Hg (Aug 24, 7:00 AM)
Average65 °F72%30.03 "Hg
* Reported Aug 15 11:00 PM — Aug 30 11:00 PM, Grenchen, Weather by CustomWeather, © 2015

Note: Actual official high and low records may vary slightly from our data, if they occured in-between our weather recording intervals... More about our weather records

Advertising

Grenchen weather history for previous 24 hours

 ConditionsComfort  
Time TempWeatherWind HumidityBarometerVisibility
11:00 PM
Sun, Aug 30
68 °FMild.1 mph72%30.07 "HgN/A
10:00 PM71 °FMild.2 mph65%30.06 "HgN/A
9:00 PM75 °FMild.No wind50%30.03 "HgN/A
8:00 PM79 °FWarm.5 mph48%30.00 "HgN/A
7:00 PM88 °FPleasantly warm.3 mph34%29.97 "HgN/A
6:00 PM90 °FHot.3 mph29%29.96 "HgN/A
5:00 PM90 °FHot.5 mph31%29.97 "HgN/A
4:00 PM90 °FHot.6 mph33%29.98 "HgN/A
3:00 PM89 °FHot.5 mph36%30.01 "HgN/A
2:00 PM86 °FWarm.1 mph41%30.04 "HgN/A
1:00 PM84 °FPleasantly warm.3 mph40%30.07 "HgN/A
12:00 PM82 °FWarm.2 mph45%30.10 "HgN/A
11:00 AM78 °FWarm.3 mph51%30.12 "HgN/A
10:00 AM74 °FMild.2 mph71%30.13 "HgN/A
9:00 AM71 °FMild.1 mph80%30.15 "HgN/A
8:00 AM65 °FMild.2 mph93%30.17 "HgN/A
7:00 AM62 °FCool.2 mph98%30.17 "HgN/A
6:00 AM63 °FMild.2 mph96%30.16 "HgN/A
5:00 AM67 °FMild.3 mph87%30.14 "HgN/A
3:00 AM64 °FMild.2 mph93%30.14 "HgN/A
2:00 AM67 °FMild.3 mph84%30.13 "HgN/A
1:00 AM70 °FMild.3 mph79%30.12 "HgN/A
Weather by CustomWeather, © 2015

See weather overviewHow to use our weather pages